Overview Statistics Trail Chart Weather Telemetry Raw packets
 

This is the latest recevied weather packets stored in our database for station/object W4UWO. If no packets are shown the sender has not sent any weather packets the latest 10 day(s).

<< 85 86 87 88 89 90 91 >>
Time Temp. Humidity Pressure Rain* Wind** Luminosity Snow
1787995703 19.44° C 87% 1020.7 hPa 0 mm - 0 W/m² -
1787995399 19.44° C 87% 1020.4 hPa 0 mm - 0 W/m² -
1787995096 20° C 86% 1020.6 hPa 0 mm - 0 W/m² -
1787994796 20° C 86% 1020.5 hPa 0 mm - 0 W/m² -
1787994493 20° C 86% 1020.5 hPa 0 mm - 0 W/m² -
1787994188 20° C 86% 1020.5 hPa 0 mm - 0 W/m² -
1787993887 20° C 85% 1020.5 hPa 0 mm - 0 W/m² -
1787993581 20° C 84% 1020.5 hPa 0 mm - 0 W/m² -
1787993277 20.56° C 84% 1020.4 hPa 0 mm - 0 W/m² -
1787992977 20.56° C 83% 1020.2 hPa 0 mm - 0 W/m² -
1787992672 20° C 84% 1020.3 hPa 0 mm - 0 W/m² -
1787992366 20.56° C 83% 1020.3 hPa 0 mm - 0 W/m² -
1787992077 20.56° C 82% 1020.2 hPa 0 mm - 0 W/m² -
1787991765 21.11° C 81% 1020.1 hPa 0 mm - 0 W/m² -
1787991460 21.11° C 80% 1020.1 hPa 0 mm - 0 W/m² -
1787991157 21.11° C 80% 1020.2 hPa 0 mm - 0 W/m² -
1787990851 21.67° C 79% 1020.1 hPa 0 mm - 0 W/m² -
1787990546 21.67° C 78% 1020.1 hPa 0 mm - 0 W/m² -
1787990244 21.67° C 78% 1020.2 hPa 0 mm - 0 W/m² -
1787989940 21.67° C 78% 1020 hPa 0 mm - 0 W/m² -
1787989639 21.67° C 78% 1020 hPa 0 mm - 0 W/m² -
1787989334 21.67° C 78% 1020.3 hPa 0 mm - 0 W/m² -
1787989033 21.67° C 77% 1019.8 hPa 0 mm - 0 W/m² -
1787988733 22.22° C 76% 1020 hPa 0 mm - 0 W/m² -
1787988429 21.67° C 77% 1020 hPa 0 mm - 0 W/m² -

* Rain latest hour (hover to see other rain measurements)
** Current wind speed in m/s (hover to see current wind gust speed)